Showing default

RASSVET-3 9, 68368

Orbit data source: Space-Track

RASSVET-3 9, 68368 is a payload satellite owned by Byuro 1440 (CIS) in LEO that was launched on Mon, 23 Mar 2026 UTC via a SOYUZ-2-1B launch vehicle from the Plesetsk Missile And Space Complex (PKMTR). Payload-class satellites include a variety of spacecraft equipped with specific instruments for various scientific and technological missions. These include communications satellites like Starlink; space stations such as the ISS; scientific satellites like the Hubble; Earth observation satellites from companies like Planet Labs, Umbra, and HawkEye 360; GPS; miniature CubeSats for education and research; and military/defense satellites.

Not visible in the next 10 days
Identifier
68368, 2026-061J
Orbit
LEO
Country
Flag of CISCIS
Related business
Manufacturer
Byuro 1440
Mission
Operational spacecraft
Bus & Motor
RASSVET-2, Unknown motor
Mass
~370 kg wet, ~370 kg dry
Launch date (UTC)
2026-03-23 (3 months ago)
Launch vehicle
SOYUZ-2-1B
Launch site
Plesetsk Missile And Space Complex (PKMTR)
Object type
Payload
Rocket body
Debris
Shape & HBR
Unknown shape, 1.7 m
Radar Cross Section
Large (>1 m²)

Expand to show TLE details & history
Last TLE update: 7 hours ago

TLE from 7 hours ago
0 RASSVET-3 9
1 68368U 26061J   26169.90183326 -.00279489  00000-0 -48751-2 0  9990
2 68368  82.2928  10.7115 0008671 151.1877 208.9855 15.51641613 13803
Epoch: 2026-06-18T21:38Z
TLE epoch observation values (Epoch: 2026-06-18T21:38:38.393Z)
Latitude
-0.00003°
Longitude
138.91302°
Altitude
420.209 km
Speed
7.656 km/s
True Right ascension
00h 42m 50s
True Declination
0° 00' 00"
Sunlit
Object was in daylight at epoch
Visualization orbit readout
Latitude
Unknown
Longitude
Unknown
Altitude
Unknown
Speed
Unknown
Apparent Right ascension
Unknown
Apparent Declination
Unknown
Sunlit
N/A
Visualization observer readout
Local Sidereal Time
15:06:10
Azimuth
Unknown
Elevation
Unknown
Doppler factor
Unknown
Orbital elements
Apogee altitude
414.755 km
Perigee altitude
402.985 km
Semi-major axis
6,787.007 km
Eccentricity
0.00087
Inclination
82.2928°
RAAN
10.7115°
Arg. of periapsis
151.1877°
True anomaly
208.9374°
Mean anomaly
208.9855°
Eccentric anomaly
208.96144°
Mean motion
3.88173 °/min
Orbital period
92.74 mins
BSTAR
-0.0048751
Loading maneuver chart data...
Computing Atmospheric mass density...
Loading historical data...
Loading historical data...
Loading historical data...
Loading historical data...
Loading historical data...
Loading historical data...
Loading historical data...

Documentation

Showing up to 5 results
|